Location: Unspecified
(0.0000°N, 0.0000°E)
Time: 20:02:49
(UTC+00:00)

Hubble Space Telescope - Pass Details

Date: 28 March 2023
Orbit: 527 x 530 km, 28.5° (Epoch: 30 March)

Event Time Altitude Azimuth Distance (km) Brightness Sun altitude
Exits shadow 04:59:55 20° 316° (NW) 1,233 2.2 -16.3°
Maximum altitude 05:02:31 59° 30° (NNE) 607 1.1 -15.7°
Drops below altitude 10° 05:06:31 10° 110° (ESE) 1,754 4.5 -14.7°
Sets 05:08:47 0° 114° (ESE) 2,644 5.5 -14.1°
